Terminal Aerodrome Forecast
Issued by NWS

Home | Current Version | Previous Version | Text Only | Print | Product List | Glossary On
Versions: 1 2 3 4 5 6 7 8 9 10 11 12 13 14 15 16 17 18 19 20 21 22 23 24 25 26 27 28 29 30 31 32 33 34 35 36 37 38 39 40 41 42 43 44
000
FTUS45 KBOU 311740
TAFAPA
TAF
KAPA 311740Z 3118/0118 15005KT P6SM SCT080 BKN120
     FM312000 03007KT P6SM VCTS SCT070CB BKN110
     FM010100 17007KT P6SM SCT070 BKN120
     FM010900 17007KT P6SM SCT120 BKN200=

USA.gov is the U.S. government's official web portal to all federal, state and local government web resources and services.